Location: Binningen
(47.7924°N, 8.7261°E)
Time: 20:45:50
(UTC+00:00)

Meteor 2-4 Rocket - Pass Details

Date: 17 May 2021
Orbit: 799 x 909 km, 81.2° (Epoch: 20 June)

Event Time Altitude Azimuth Distance (km) Brightness Sun altitude
Exits shadow 21:39:41 34° 149° (SSE) 1,382 4.3 -18.9°
Maximum altitude 21:41:47 51° 95° (E) 1,064 4.0 -19.1°
Drops below altitude 10° 21:47:08 10° 21° (NNE) 2,453 6.7 -19.4°
Sets 21:49:34 0° 16° (NNE) 3,375 7.6 -19.6°
